TUI3JB EGKK-EDDH

Flight info

Callsign TUI3JB
Flight time N/A
Altitude 37000
Route FRANE M604 PAAVO Q295 SOMVA DCT MAVAS DCT PARYD DCT GASTU DCT OSTOR T904 RIBSO RIBSO7A
Aircraft B38M/M-SDE1FGHILORVWXY/HB1

Departure

Time 2026-05-06 11:15
Airport London Gatwick Airport (EGKK)

Arrival

Time N/A
Airport Hamburg Helmut Schmidt Airport (EDDH)
Time Latitude Longitude Altitude Speed Heading
2026-05-06 10:57 51.15901 -0.17961 193 ft 0 kts 78°
2026-05-06 11:02 51.15899 -0.17975 193 ft 2 kts 78°
2026-05-06 11:02 51.15896 -0.17999 193 ft 2 kts 78°
2026-05-06 11:03 51.15892 -0.18022 192 ft 2 kts 78°
2026-05-06 11:03 51.15889 -0.18045 192 ft 2 kts 79°
2026-05-06 11:03 51.15890 -0.18069 191 ft 2 kts 112°
2026-05-06 11:03 51.15899 -0.18090 191 ft 2 kts 139°
2026-05-06 11:04 51.15911 -0.18102 190 ft 1 kts 164°
2026-05-06 11:04 51.15917 -0.18104 190 ft 1 kts 173°
2026-05-06 11:04 51.15920 -0.18104 190 ft 0 kts 170°
2026-05-06 11:05 51.15909 -0.18101 190 ft 7 kts 170°
2026-05-06 11:06 51.15847 -0.18081 191 ft 8 kts 167°
2026-05-06 11:06 51.15790 -0.18061 191 ft 8 kts 168°
2026-05-06 11:06 51.15738 -0.18043 192 ft 7 kts 168°
2026-05-06 11:06 51.15696 -0.18045 192 ft 3 kts 221°
2026-05-06 11:07 51.15682 -0.18123 190 ft 14 kts 252°
2026-05-06 11:07 51.15652 -0.18291 190 ft 16 kts 257°
2026-05-06 11:07 51.15619 -0.18542 191 ft 24 kts 257°
2026-05-06 11:07 51.15585 -0.18795 193 ft 19 kts 243°
2026-05-06 11:08 51.15471 -0.18800 193 ft 18 kts 168°
2026-05-06 11:08 51.15326 -0.18749 193 ft 25 kts 167°
2026-05-06 11:08 51.15181 -0.18697 196 ft 11 kts 168°
2026-05-06 11:08 51.15129 -0.18736 196 ft 8 kts 251°
2026-05-06 11:09 51.15111 -0.18854 196 ft 16 kts 257°
2026-05-06 11:09 51.15076 -0.19117 194 ft 33 kts 258°
2026-05-06 11:09 51.15022 -0.19522 193 ft 37 kts 258°
2026-05-06 11:09 51.14967 -0.19911 195 ft 35 kts 261°
2026-05-06 11:10 51.14917 -0.20281 198 ft 33 kts 256°
2026-05-06 11:10 51.14863 -0.20633 196 ft 33 kts 252°
2026-05-06 11:10 51.14831 -0.20877 197 ft 13 kts 257°
2026-05-06 11:10 51.14798 -0.21112 198 ft 27 kts 253°
2026-05-06 11:11 51.14764 -0.21307 200 ft 12 kts 258°
2026-05-06 11:11 51.14735 -0.21398 202 ft 6 kts 206°
2026-05-06 11:11 51.14687 -0.21383 202 ft 10 kts 151°
2026-05-06 11:11 51.14620 -0.21325 202 ft 0 kts 167°
2026-05-06 11:12 51.14616 -0.21324 202 ft 3 kts 167°
2026-05-06 11:12 51.14522 -0.21236 201 ft 28 kts 133°
2026-05-06 11:13 51.14542 -0.20982 198 ft 28 kts 69°
2026-05-06 11:13 51.14581 -0.20738 196 ft 0 kts 78°
2026-05-06 11:14 51.14585 -0.20705 196 ft 10 kts 78°
2026-05-06 11:14 51.14621 -0.20451 197 ft 46 kts 75°
2026-05-06 11:14 51.14741 -0.19623 193 ft 106 kts 74°
2026-05-06 11:14 51.14984 -0.18219 198 ft 152 kts 74°
2026-05-06 11:15 51.15188 -0.16426 345 ft 180 kts 75°
2026-05-06 11:15 51.15467 -0.14414 885 ft 192 kts 73°
2026-05-06 11:15 51.15764 -0.12261 1445 ft 207 kts 75°
2026-05-06 11:15 51.16063 -0.09994 2068 ft 213 kts 73°
2026-05-06 11:16 51.16419 -0.07656 2568 ft 224 kts 74°
2026-05-06 11:16 51.16751 -0.05108 2755 ft 251 kts 75°
2026-05-06 11:16 51.16935 -0.02452 3721 ft 242 kts 85°
2026-05-06 11:16 51.16925 0.00239 4132 ft 241 kts 89°
2026-05-06 11:17 51.16821 0.02936 4296 ft 252 kts 90°
2026-05-06 11:17 51.16741 0.05869 4813 ft 277 kts 89°
2026-05-06 11:17 51.16684 0.08947 5740 ft 285 kts 89°
2026-05-06 11:17 51.16624 0.12050 6985 ft 278 kts 89°
2026-05-06 11:18 51.16565 0.14962 8232 ft 261 kts 89°
2026-05-06 11:18 51.16538 0.17703 9385 ft 251 kts 88°
2026-05-06 11:18 51.16548 0.20503 10214 ft 255 kts 87°
2026-05-06 11:18 51.16568 0.23378 10744 ft 271 kts 87°
2026-05-06 11:19 51.16584 0.26430 11318 ft 283 kts 88°
2026-05-06 11:19 51.16592 0.29620 11876 ft 296 kts 88°
2026-05-06 11:19 51.16596 0.32953 12306 ft 311 kts 88°
2026-05-06 11:19 51.16598 0.36487 12758 ft 327 kts 89°
2026-05-06 11:20 51.16599 0.40133 13181 ft 340 kts 89°
2026-05-06 11:20 51.16599 0.43974 13621 ft 353 kts 89°
2026-05-06 11:20 51.16710 0.47877 14027 ft 364 kts 81°
2026-05-06 11:20 51.17363 0.51835 14474 ft 373 kts 62°
2026-05-06 11:21 51.18919 0.55079 14905 ft 379 kts 38°
2026-05-06 11:21 51.21252 0.57128 15356 ft 385 kts 17°
2026-05-06 11:21 51.23846 0.58216 15788 ft 391 kts
2026-05-06 11:21 51.26524 0.58977 16211 ft 399 kts
2026-05-06 11:22 51.29297 0.59713 16641 ft 406 kts
2026-05-06 11:22 51.32077 0.60523 17081 ft 412 kts
2026-05-06 11:22 51.34859 0.61431 17509 ft 418 kts 10°
2026-05-06 11:22 51.37706 0.62434 17949 ft 422 kts 11°
2026-05-06 11:23 51.40527 0.63523 18372 ft 425 kts 13°
2026-05-06 11:23 51.43355 0.64784 18793 ft 428 kts 14°
2026-05-06 11:23 51.46216 0.66157 19226 ft 432 kts 16°
2026-05-06 11:23 51.49078 0.67552 19670 ft 429 kts 15°
2026-05-06 11:24 51.51804 0.68851 19850 ft 403 kts 15°
2026-05-06 11:24 51.54487 0.70104 18576 ft 416 kts 15°
2026-05-06 11:24 51.56060 0.70842 17475 ft 431 kts 15°
2026-05-06 11:24 51.58918 0.72242 16125 ft 439 kts 17°
2026-05-06 11:25 51.61739 0.73732 16053 ft 415 kts 18°
2026-05-06 11:25 51.64391 0.75255 15839 ft 398 kts 19°
2026-05-06 11:25 51.66967 0.76848 14239 ft 418 kts 21°
2026-05-06 11:25 51.69736 0.78446 12852 ft 421 kts 17°
2026-05-06 11:26 51.72472 0.79851 12268 ft 409 kts 17°
2026-05-06 11:26 51.75129 0.81205 11219 ft 410 kts 17°
2026-05-06 11:26 51.77897 0.82067 9555 ft 422 kts
2026-05-06 11:26 51.80790 0.81347 8322 ft 420 kts 344°
2026-05-06 11:27 51.83235 0.79220 7959 ft 399 kts 314°
2026-05-06 11:27 51.84864 0.75864 8269 ft 364 kts 306°
2026-05-06 11:27 51.86084 0.72476 8699 ft 329 kts 297°
2026-05-06 11:27 51.86857 0.69252 9115 ft 298 kts 285°
2026-05-06 11:28 51.87142 0.66125 9534 ft 266 kts 276°
2026-05-06 11:28 51.87246 0.63318 9869 ft 237 kts 275°
2026-05-06 11:28 51.87525 0.60703 9386 ft 243 kts 293°
2026-05-06 11:28 51.88112 0.58179 9285 ft 229 kts 283°
2026-05-06 11:29 51.88148 0.55764 9403 ft 211 kts 258°
2026-05-06 11:29 51.87611 0.53599 9223 ft 207 kts 244°
2026-05-06 11:29 51.86914 0.51578 8929 ft 208 kts 243°
2026-05-06 11:29 51.86196 0.49554 8646 ft 208 kts 242°
2026-05-06 11:30 51.85487 0.47550 8352 ft 208 kts 243°
2026-05-06 11:30 51.84715 0.45560 8038 ft 209 kts 233°
2026-05-06 11:30 51.83774 0.43760 7769 ft 208 kts 230°
2026-05-06 11:30 51.82812 0.42031 7519 ft 206 kts 230°
2026-05-06 11:31 51.81867 0.40332 7269 ft 204 kts 230°
2026-05-06 11:31 51.80929 0.38643 7014 ft 203 kts 230°
2026-05-06 11:31 51.80148 0.36762 6624 ft 205 kts 253°
2026-05-06 11:31 51.79757 0.34494 5891 ft 223 kts 260°
2026-05-06 11:32 51.79327 0.31990 4991 ft 246 kts 246°
2026-05-06 11:32 51.78366 0.29728 4269 ft 247 kts 228°
2026-05-06 11:32 51.77200 0.27799 3747 ft 234 kts 226°
2026-05-06 11:32 51.76073 0.26003 3234 ft 222 kts 226°
2026-05-06 11:33 51.75028 0.24342 2959 ft 201 kts 230°
2026-05-06 11:33 51.74458 0.22445 2649 ft 179 kts 273°
2026-05-06 11:33 51.74713 0.20639 2341 ft 159 kts 307°
2026-05-06 11:33 51.75368 0.19322 1933 ft 155 kts 326°
2026-05-06 11:34 51.76353 0.18554 1415 ft 159 kts 348°
2026-05-06 11:34 51.77382 0.18235 1308 ft 146 kts 352°
2026-05-06 11:34 51.78365 0.17991 1063 ft 143 kts 353°
2026-05-06 11:34 51.79240 0.17826 1522 ft 110 kts 355°
2026-05-06 11:35 51.79944 0.17754 2436 ft 132 kts
2026-05-06 11:35 51.81115 0.17912 2423 ft 139 kts
2026-05-06 11:35 51.82058 0.18090 2068 ft 142 kts
2026-05-06 11:35 51.83038 0.18432 1678 ft 149 kts 11°
2026-05-06 11:36 51.84074 0.18810 1317 ft 152 kts 14°
2026-05-06 11:36 51.85013 0.19441 1134 ft 143 kts 24°
2026-05-06 11:36 51.85878 0.20129 861 ft 137 kts 27°
2026-05-06 11:36 51.86728 0.20889 787 ft 144 kts 33°
2026-05-06 11:37 51.87482 0.21984 398 ft 145 kts 37°
2026-05-06 11:37 51.87960 0.22701 338 ft 125 kts 40°